Terug naar catalogus

STARLINK-36608

ActiefCommunicatieVLEO
NORAD 67854·PAYLOAD·🇺🇸 United States

Gelanceerd Feb 20, 2026 vanaf Vandenberg Space Force Base

Loading…

Volgende Passages (komende 24 uur)

TLE

VersSource: CelesTrak SupGP

Epoch: Sep 15, 2026, 03:13 UTC

1 67854C 26034E   26258.13451389 -.00002661  00000+0 -78629-4 0  2582
2 67854  53.1600  43.0210 0001099  91.1899  82.2285 15.34390518    10

Volg STARLINK-36608 in realtime met AllMySat

Download on the App Store